User: anonymous   Login
Location: Ithaca
(42.4410°N, 76.4970°W)
Time: 23:04:06
(UTC-04:00)
Language:

Cosmos 1271 Rocket - Orbit

View from above orbital plane
View from above orbital plane
View from above satellite
View from above satellite

Ground track
Ground track

The orbit data is extracted from the following two-line orbital elements,

1 12465U 81046B   14295.81224424  .00006023  00000-0  35982-3 0  3732
2 12465 081.2469 054.8864 0034899 313.0832 046.7474 15.10430217821050
Epoch (UTC): 22 October 2014 19:29:37
Eccentricity: 0.0034899
inclination: 81.2469°
perigee height: 511 km
apogee height: 559 km
right ascension of ascending node: 54.8864°
argument of perigee: 313.0832°
revolutions per day: 15.10430217
mean anomaly at epoch: 46.7474°
orbit number at epoch: 82105

The dashed part of the orbit path shows where the satellite is in the earth's shadow,  

DLR